Location: Austin
(30.3000°N, 97.7500°W)
Time: 20:46:47
(UTC-06:00)

USA 215 - Pass Details

Date: 31 October 2024
Orbit: 1099 x 1108 km, 123.0° (Epoch: 27 October)

Event Time Altitude Azimuth Distance (km) Brightness Sun altitude
Rises 06:20:57 0° 31° (NNE) 3,916 6.5 -18.6°
Reaches altitude 10° 06:23:42 10° 22° (NNE) 2,956 5.7 -18.0°
Maximum altitude 06:29:18 32° 322° (NW) 1,787 4.0 -16.8°
Enters shadow 06:32:07 23° 282° (WNW) 2,140 4.1 -16.2°
